This is the latest recevied weather packets stored in our database for station/object KM4KBD. If no packets are shown the sender has not sent any weather packets the latest 10 day(s).
| Time | Temp. | Humidity | Pressure | Rain* | Wind** | Luminosity | Snow |
|---|---|---|---|---|---|---|---|
| 1777940146 | 22.22° C | 52% | 1014.5 hPa | 0 mm | - | 7 W/m² | - |
| 1777939843 | 22.22° C | 52% | 1014.5 hPa | 0 mm | - | 10 W/m² | - |
| 1777939540 | 22.22° C | 52% | 1014.6 hPa | 0 mm | - | 12 W/m² | - |
| 1777939238 | 22.78° C | 51% | 1014.7 hPa | 0 mm | - | 14 W/m² | - |
| 1777938934 | 22.78° C | 50% | 1014.6 hPa | 0 mm | - | 18 W/m² | - |
| 1777938631 | 23.33° C | 49% | 1014.6 hPa | 0 mm | - | 22 W/m² | - |
| 1777938328 | 23.33° C | 48% | 1015 hPa | 0 mm | - | 28 W/m² | - |
| 1777938025 | 23.89° C | 48% | 1014.6 hPa | 0 mm | - | 36 W/m² | - |
| 1777937720 | 23.89° C | 48% | 1015.1 hPa | 0 mm | - | 45 W/m² | - |
| 1777937418 | 24.44° C | 48% | 1014.8 hPa | 0 mm | - | 58 W/m² | - |
| 1777937114 | 23.89° C | 48% | 1015.1 hPa | 0 mm | - | 60 W/m² | - |
| 1777936812 | 24.44° C | 48% | 1014.8 hPa | 0 mm | - | 76 W/m² | - |
| 1777936508 | 23.33° C | 49% | 1015.2 hPa | 0 mm | - | 70 W/m² | - |
| 1777936204 | 23.89° C | 50% | 1015.1 hPa | 0 mm | - | 48 W/m² | - |
| 1777935901 | 23.89° C | 49% | 1015.2 hPa | 0 mm | - | 54 W/m² | - |
| 1777935600 | 23.89° C | 48% | 1015.1 hPa | 0 mm | - | 76 W/m² | - |
| 1777935296 | 24.44° C | 45% | 1015.3 hPa | 0 mm | - | 81 W/m² | - |
| 1777934994 | 25° C | 45% | 1015.3 hPa | 0 mm | - | 144 W/m² | - |
| 1777934690 | 25° C | 45% | 1015.4 hPa | 0 mm | - | 135 W/m² | - |
| 1777934387 | 25° C | 45% | 1015.4 hPa | 0 mm | - | 175 W/m² | - |
| 1777934083 | 25° C | 45% | 1015.3 hPa | 0 mm | - | 156 W/m² | - |
| 1777933779 | 25° C | 43% | 1015 hPa | 0 mm | - | 188 W/m² | - |
| 1777933477 | 25° C | 44% | 1015.1 hPa | 0 mm | - | 203 W/m² | - |
| 1777933174 | 25° C | 43% | 1015.1 hPa | 0 mm | - | 213 W/m² | - |
| 1777932871 | 25° C | 45% | 1015.2 hPa | 0 mm | - | 206 W/m² | - |
* Rain latest hour (hover to see other rain measurements)
** Current wind speed in m/s (hover to see current wind gust speed)